Regional Weather Roundup
Issued by NWS

Home | Current Version | Previous Version | Graphics & Text | Print | Product List | Glossary On
Versions: 1 2 3 4 5 6 7 8 9 10 11 12 13 14 15 16 17 18 19 20 21 22 23 24 25 26 27 28 29 30 31 32 33 34 35 36 37 38 39 40 41 42 43 44 45 46 47 48 49 50
000
ASUS45 KTFX 010010
RWRMT
MONTANA REGIONAL WEATHER ROUNDUP
NATIONAL WEATHER SERVICE GREAT FALLS MT
600 PM MDT FRI SEP 30 2016

NOTE: "FAIR" INDICATES FEW OR NO CLOUDS BELOW 12000 FEET WITH NO
SIGNIFICANT WEATHER AND/OR OBSTRUCTIONS TO VISIBILITY.

MTZ001>007-043-010100-
WEST OF THE DIVIDE

CITY           SKY/WX    TMP DP  RH WIND       PRES   REMARKS
KALISPELL      MOSUNNY   75  46  35 S6        29.90F
MISSOULA       MOSUNNY   77  41  27 S5        29.91S
BUTTE          LGT RAIN  63  46  54 E10       30.10S
MULLAN PASS    MOSUNNY   61  35  37 SW5       30.06F
ANACONDA         N/A     72  43  35 SE8       30.03F
DEER LODGE       N/A     75  43  31 S7        30.04F
EUREKA           N/A     68  50  52 CALM      29.92S
HAMILTON         N/A     77  41  27 E3        29.93F
LIBBY            N/A     73  54  49 CALM      29.89S
RONAN            N/A     76  47  35 N5        29.97F
$$

MTZ008-052>055-010100-
SOUTHWEST MONTANA

CITY           SKY/WX    TMP DP  RH WIND       PRES   REMARKS
BOZEMAN        SUNNY     75  46  35 SE7       30.05S
DILLON         CLOUDY    67  38  34 SE16      30.08S
W YELLOWSTONE  SUNNY     64  41  42 SW9G16    30.21S
ENNIS          MOSUNNY   68  37  32 E9        30.15F
THREE FORKS      N/A     76  76 100 W1        30.02S
TWIN BRIDGES     N/A     74  35  24 E7        30.05F
$$

MTZ009-010-012-014-046-048-049-054-010100-
EAST SLOPES AND CENTRAL MONTANA

CITY           SKY/WX    TMP DP  RH WIND       PRES   REMARKS
CUT BANK       MOSUNNY   74  44  34 SE12      29.97F
GREAT FALLS    SUNNY     75  46  35 E8        29.96S
MALMSTROM AFB  CLEAR     72  48  42 NE8       29.96F
HELENA         CLOUDY    77  39  25 S8        29.99R
AUGUSTA          N/A     75  36  24 SW7       29.98S
BOWMANS CRNR     N/A     70  39  32 SE12      29.97S
CHOTEAU          N/A     75  45  33 SE10      29.98F
CONRAD           N/A     76  51  41 E7        30.00S
FAIRFIELD        N/A     73  44  34 E10       29.96S
POWER            N/A     73  43  33 E8        29.97S
RAYNESFORD       N/A     75  43  31 SE6       30.00S
$$

MTZ011-013-016-021-045-047-050-051-010100-
NORTH CENTRAL MONTANA

CITY           SKY/WX    TMP DP  RH WIND       PRES   REMARKS
HAVRE          CLEAR     77  54  44 SE5       29.94S
LEWISTOWN      CLEAR     76  47  35 CALM      30.03S
N BAR RANCH      N/A     70  52  52 S3        30.07S
CHINOOK          N/A     79  54  41 E3        29.93S
DENTON           N/A     74  49  41 E6        29.97S
GEYSER           N/A     75  36  24 SW7       29.98S
GRASS RANGE    MOCLDY    71  53  53 E6        29.99R
JUDITH GAP       N/A     71  46  40 NW8G16    30.05S
ROY              N/A     73  49  42 MISG      29.99S
STANFORD         N/A     71  50  47 E5        30.04S
WINIFRED         N/A     73  51  45 MISG      30.00S
$$

MTZ017>020-022>027-061-062-010100-
NORTHEAST MONTANA

CITY           SKY/WX    TMP DP  RH WIND       PRES   REMARKS
GLASGOW        CLEAR     77  51  40 NW8       29.93S
JORDAN           N/A     79  53  40 N9        29.95S
SIDNEY         CLOUDY    64  56  75 NE7       29.97S
WOLF POINT     CLEAR     74  55  51 E10       29.94R
PLENTYWOOD       N/A     70  54  56 SE9       29.98S
POPLAR           N/A     73  55  53 E10       29.95S
SCOBEY           N/A     73  50  44 SE6       29.96R
$$

MTZ028>42-056>058-010100-
SOUTHCENTRAL AND SOUTHEAST MONTANA

CITY           SKY/WX    TMP DP  RH WIND       PRES   REMARKS
BAKER          CLEAR     72  52  49 E9        30.00R
BILLINGS       PTCLDY    82  42  24 CALM      29.99S
LIVINGSTON     CLEAR     71  43  36 SW15      30.06R
MILES CITY     CLEAR     78  52  40 SW6       29.94S
BIG TIMBER     CLEAR     73  43  33 SW23      30.07R
EKALAKA          N/A     74  51  44 W1        30.00R
FORSYTH          N/A     81  50  34 CALM      29.95S
HARLOWTON        N/A     75  39  27 NE12      30.02S
LAUREL           N/A     81  44  26 CALM      29.99S
ROUNDUP          N/A     77  49  37 NE5       29.92R
$$

REGIONAL REPORTS...DAKOTAS

CITY           SKY/WX    TMP DP  RH WIND       PRES   REMARKS
WILLISTON      LGT RAIN  62  52  69 S6        30.01S
MINOT          MOCLDY    64  53  67 SE10      30.06S
DICKINSON      CLEAR     65  46  50 S13       30.01S
BEACH            N/A     68  50  52 SE9       30.03R
CROSBY           N/A     64  50  59 S10       30.03R
WATFORD CITY   MOCLDY    64  50  59 SE7       30.02S
BISMARCK       PTCLDY    68  45  43 SE15      30.06S
GRAND FORKS    PTCLDY    66  50  56 SE9       30.19R
FARGO          PTCLDY    66  49  54 SE10      30.20S
BUFFALO SD       N/A     70  47  43 SE14      29.95S
RAPID CITY     CLOUDY    68  52  56 SE3       30.02F
$$

REGIONAL REPORTS...WYOMING/IDAHO/WASHINGTON

CITY           SKY/WX    TMP DP  RH WIND       PRES   REMARKS
GILLETTE       CLEAR     74  50  42 N7        30.05S
SHERIDAN       CLEAR     73  53  49 SW7       30.04S
BUFFALO WY     CLEAR     69  44  40 NW5       30.11S
CODY           CLEAR     71  41  33 NE3       30.11F
YELLOWSTONE LA   N/A     47  47 100 NW5       30.32R
IDAHO FALLS    MOSUNNY   74  41  30 SW3       30.10F
SALMON         CLOUDY    70  39  32 E18       29.99F
BOISE          MOSUNNY   83  30  14 SE9       29.88F
SPOKANE        PTSUNNY   74  41  30 W5        29.89F
$$

REGIONAL REPORTS...ALBERTA

CITY           SKY/WX    TMP DP  RH WIND       PRES   REMARKS
EDMONTON       CLOUDY    50  45  81 NE12      30.07R
CALGARY        PTSUNNY   57  48  72 N14       30.00S
LETHBRIDGE     MOSUNNY   72  50  46 E6        29.93R
MEDICINE HAT   PTCLDY    73  54  49 N3        29.92S
WATERTON GATE    N/A     66  43  42 SW6         N/A
MILK RIVER       N/A     75  46  35 S14         N/A
ONEFOUR          N/A     77  43  29 E8          N/A
$$

REGIONAL REPORTS...SASKATCHEWAN

CITY           SKY/WX    TMP DP  RH WIND       PRES   REMARKS
SWIFT CURRENT  CLEAR     64  52  63 E10       29.95F
REGINA         PTCLDY    63  50  63 SE13      30.00R
SASKATOON      PTCLDY    63  52  67 NW7       29.97F
CYPRESS HILLS    N/A     70  39  32 E3          N/A
VAL MARIE        N/A     73  50  43 N12         N/A
ROCKGLEN         N/A     72  52  49 NE3         N/A
ASSINIBOIA       N/A     52  46  82 NE10        N/A
$$



USA.gov is the U.S. government's official web portal to all federal, state and local government web resources and services.